Cedar Rapids, IA

12:19 PM CST on December 09, 2019 (GMT -0600)
The Eastern Iowa Airport

Weather History for KCID - August, 2019

Change the Weather History Date:

Saturday, August 24, 2019

  Actual Average Record
Temperature  
Mean Temperature 64 °F 70 °F  
Max Temperature 74 °F 81 °F 100 °F (1947)
Min Temperature 53 °F 60 °F 41 °F (1942)
Degree Days  
Heating Degree Days 1 1  
Month to date heating degree days 1 5  
Since 1 June heating degree days 12 38  
Since 1 July heating degree days 1 9  
Cooling Degree Days 0 6  
Month to date cooling degree days 145 163  
Year to date cooling degree days 647 630  
Since 1 June cooling degree days 619 581  
Growing Degree Days 14 (Base 50)    
Moisture  
Dew Point 56 °F    
Average Humidity 77    
Maximum Humidity 100    
Minimum Humidity 53    
Precipitation  
Precipitation 0.00 in 0.14 in 1.31 in (1962)
Month to date precipitation 4.92 3.51  
Year to date precipitation 27.51 24.33  
Sea Level Pressure  
Sea Level Pressure 30.19 in    
Wind  
Wind Speed 9 mph (ESE)    
Max Wind Speed 17 mph    
Max Gust Speed 24 mph    
Visibility 10 miles    
Events      
T = Trace of Precipitation, MM = Missing Value Source: NWS Daily Summary

Daily Weather History Graph

Daily Weather History Graph

Search for Another Location

Airport or City:

Astronomy

Aug. 24, 2019 Rise Set
Actual Time 6:24 AM CDT 7:53 PM CDT
Civil Twilight 5:54 AM CDT 8:22 PM CDT
Nautical Twilight 5:19 AM CDT 8:57 PM CDT
Astronomical Twilight 4:41 AM CDT 9:35 PM CDT
Moon 12:15 AM CDT (8/24) 3:12 PM CDT (8/24)
Length of Visible Light 14h 27m
Length of Day
13h 29m
Last Quarter, 39% of the Moon is Illuminated
Aug 24
Last Quarter
Aug 30
New
Sep 5
First Quarter
Sep 13
Full
Sep 21
Last Quarter

Hourly Weather History & Observations

Time (CDT) Temp. Dew Point Humidity Pressure Visibility Wind Dir Wind Speed Gust Speed Precip Events Conditions
12:52 AM 57.9 °F 55.9 °F 93% 30.21 in 10.0 mi East 8.1 mph - N/A   Clear
1:52 AM 57.9 °F 55.9 °F 93% 30.22 in 10.0 mi East 9.2 mph - N/A   Clear
2:52 AM 55.9 °F 55.0 °F 97% 30.23 in 10.0 mi East 9.2 mph - N/A   Clear
3:52 AM 55.0 °F 55.0 °F 100% 30.22 in 10.0 mi East 9.2 mph - N/A   Clear
4:52 AM 54.0 °F 54.0 °F 100% 30.23 in 10.0 mi ESE 6.9 mph - N/A   Clear
5:52 AM 54.0 °F 53.1 °F 97% 30.24 in 10.0 mi Calm Calm - N/A   Clear
6:52 AM 54.0 °F 53.1 °F 97% 30.24 in 10.0 mi East 5.8 mph - N/A   Clear
7:52 AM 57.9 °F 55.9 °F 93% 30.24 in 10.0 mi East 10.4 mph - N/A   Clear
8:52 AM 61.0 °F 57.9 °F 90% 30.24 in 10.0 mi East 9.2 mph - N/A   Clear
9:52 AM 64.0 °F 59.0 °F 84% 30.24 in 10.0 mi East 6.9 mph - N/A   Clear
10:52 AM 68.0 °F 59.0 °F 73% 30.22 in 10.0 mi ESE 9.2 mph - N/A   Scattered Clouds
11:52 AM 70.0 °F 57.9 °F 65% 30.20 in 10.0 mi ESE 11.5 mph 19.6 mph N/A   Partly Cloudy
12:52 PM 71.1 °F 55.9 °F 59% 30.19 in 10.0 mi ESE 13.8 mph - N/A   Clear
1:52 PM 72.0 °F 59.0 °F 64% 30.18 in 10.0 mi SE 13.8 mph - N/A   Mostly Cloudy
2:52 PM 72.0 °F 57.9 °F 61% 30.17 in 10.0 mi SE 13.8 mph 23.0 mph N/A   Scattered Clouds
3:52 PM 71.1 °F 57.0 °F 61% 30.15 in 10.0 mi ESE 8.1 mph - N/A   Mostly Cloudy
4:52 PM 73.0 °F 55.9 °F 55% 30.14 in 10.0 mi ESE 11.5 mph - N/A   Partly Cloudy
5:52 PM 71.1 °F 55.9 °F 59% 30.14 in 10.0 mi ESE 11.5 mph - N/A   Clear
6:52 PM 68.0 °F 57.9 °F 70% 30.14 in 10.0 mi East 6.9 mph - N/A   Clear
7:52 PM 63.0 °F 57.9 °F 84% 30.14 in 10.0 mi East 8.1 mph - N/A   Partly Cloudy
8:52 PM 62.1 °F 57.0 °F 84% 30.14 in 10.0 mi East 8.1 mph - N/A   Clear
9:52 PM 60.1 °F 57.0 °F 90% 30.14 in 10.0 mi East 8.1 mph - N/A   Scattered Clouds
10:52 PM 60.1 °F 57.0 °F 90% 30.13 in 10.0 mi East 8.1 mph - N/A   Clear
11:52 PM 59.0 °F 55.0 °F 87% 30.12 in 10.0 mi East 8.1 mph - N/A   Clear